[[{"header":{"parameterUnit":"m.s-1","parameterCategory":1,"la1":30.2992,"la2":30.254,"lo1":-89.0895,"lo2":-89.0443,"dy":0.0025,"dx":0.0025,"nx":19,"ny":19,"refTime":"2026-05-16T03:00:00:Z","depth":0,"parameterNumber":2,"parameterNumberName":"U-component_of_WINDS"},"data":[0,0,0,-1.8829,-1.883,-1.8854,-1.8854,-1.8887,-1.8887,0,0,0,0,0,0,0,0,0,0,0,-1.8822,-1.8822,-1.8829,-1.883,-1.8854,-1.8854,-1.8887,-1.8887,0,0,0,0,0,0,0,0,0,0,0,-1.8822,-1.8822,-1.8822,-1.883,-1.8854,-1.8854,-1.8887,-1.8868,0,0,0,0,0,0,0,0,0,0,-1.8844,-1.8837,-1.8822,-1.8822,-1.883,-1.8854,-1.8854,-1.8867,-1.8869,-1.8876,0,-1.8881,0,-1.8885,-1.8889,-1.8889,0,0,0,-1.883,-1.8835,-1.8842,-1.8822,-1.883,-1.8854,-1.8843,-1.8868,-1.8871,-1.8879,-1.8882,-1.8883,-1.8885,-1.8889,-1.889,-1.8928,-1.8928,0,0,-1.8829,-1.8826,-1.884,-1.8843,-1.8839,-1.8842,-1.8844,-1.887,-1.8873,-1.8882,-1.8884,-1.8886,-1.889,-1.889,-1.8927,-1.8928,0,0,0,-1.8825,-1.8825,-1.8831,-1.8842,-1.8846,-1.8843,-1.8845,-1.8872,-1.8874,-1.8884,-1.8886,-1.889,-1.889,-1.8927,-1.8928,-1.8932,0,0,0,-1.8824,-1.8823,-1.8831,-1.8829,-1.8846,-1.8859,-1.8846,-1.8872,-1.8875,-1.8886,-1.889,-1.8891,-1.8927,-1.8927,-1.8932,-1.8935,0,0,0,-1.882,-1.8823,-1.8826,-1.8829,-1.8839,-1.8859,-1.8862,-1.8873,-1.8876,-1.8889,-1.8891,-1.8927,-1.8927,-1.8931,-1.8934,-1.8944,0,0,0,-1.8816,-1.883,-1.8826,-1.8843,-1.8839,-1.8862,-1.8862,-1.8879,-1.8891,-1.889,-1.8927,-1.8927,-1.8931,-1.8934,-1.8944,-1.8951,-1.8954,0,0,-1.8832,-1.8832,-1.8842,-1.8839,-1.8861,-1.8858,-1.8882,-1.8895,-1.8899,-1.8918,-1.8919,-1.8932,-1.8934,-1.8944,-1.8975,-1.8977,0,0,0,-1.8846,-1.8853,-1.886,-1.8871,-1.8881,-1.8891,-1.8901,-1.8907,-1.8923,-1.8908,-1.8939,-1.894,-1.8946,-1.895,-1.8952,-1.8957,-1.8929,-1.8929,-1.8929,-1.8865,-1.8869,-1.8887,-1.8894,-1.8905,-1.8916,-1.8926,-1.8935,-1.8937,-1.8944,-1.8949,-1.8967,-1.8972,-1.8973,-1.8979,-1.8955,-1.8955,-1.8955,-1.8955,-1.8888,-1.8899,-1.8902,-1.8919,-1.8925,-1.894,-1.8952,-1.8953,-1.8969,-1.8963,-1.8969,-1.8961,-1.8976,-1.8981,-1.8955,-1.8955,-1.8955,-1.8955,-1.8955,-1.89,-1.8906,-1.8913,-1.893,-1.8943,-1.8952,-1.8967,-1.8972,-1.8976,-1.8982,-1.8988,-1.8988,-1.8988,-1.8985,-1.8985,-1.8985,-1.8985,-1.8985,-1.8985,-1.8909,-1.8917,-1.8928,-1.8942,-1.895,-1.8962,-1.8975,-1.8984,-1.8995,-1.8998,-1.8998,-1.8999,-1.8976,-1.897,-1.8986,-1.8986,-1.8986,-1.8985,-1.8985,-1.893,-1.8927,-1.8944,-1.8953,-1.897,-1.8984,-1.899,-1.9008,-1.9017,-1.9024,-1.9025,-1.9008,-1.9008,-1.9006,-1.9001,-1.9024,-1.9024,-1.9024,-1.9024,-1.894,-1.8941,-1.896,-1.8974,-1.8988,-1.8996,-1.9017,-1.9029,-1.904,-1.9046,-1.9044,-1.9038,-1.9036,-1.9037,-1.9035,-1.903,-1.906,-1.906,-1.906,-1.8953,-1.8955,-1.8972,-1.8982,-1.8997,-1.9009,-1.903,-1.9047,-1.9059,-1.9061,-1.9051,-1.9049,-1.904,-1.9036,-1.9036,-1.9033,-1.9024,0,0]},{"header":{"parameterUnit":"m.s-1","parameterCategory":1,"la1":30.2992,"la2":30.254,"lo1":-89.0895,"lo2":-89.0443,"dy":0.0025,"dx":0.0025,"nx":19,"ny":19,"refTime":"2026-05-16T03:00:00:Z","depth":0,"parameterNumber":3,"parameterNumberName":"V-component_of_WINDS"},"data":[0,0,0,4.2736,4.2737,4.2781,4.2781,4.2837,4.2837,0,0,0,0,0,0,0,0,0,0,0,4.2723,4.2724,4.2736,4.2737,4.2781,4.2781,4.2836,4.2837,0,0,0,0,0,0,0,0,0,0,0,4.2723,4.2723,4.2724,4.2737,4.2781,4.2781,4.2836,4.2803,0,0,0,0,0,0,0,0,0,0,4.276,4.2749,4.2723,4.2724,4.2737,4.2781,4.2781,4.2801,4.2805,4.2817,0,4.2828,0,4.2833,4.2841,4.2841,0,0,0,4.2736,4.2746,4.2758,4.2724,4.2738,4.2781,4.2761,4.2803,4.2808,4.2821,4.2829,4.2831,4.2834,4.2841,4.2841,4.2914,4.2914,0,0,4.2733,4.2731,4.2755,4.2761,4.2755,4.2759,4.2762,4.2806,4.2813,4.2829,4.2832,4.2835,4.2842,4.2842,4.2913,4.2914,0,0,0,4.2727,4.2729,4.274,4.2758,4.2767,4.2761,4.2764,4.2811,4.2815,4.2833,4.2836,4.2842,4.2843,4.2913,4.2913,4.2931,0,0,0,4.2726,4.2726,4.2739,4.2738,4.2766,4.279,4.2768,4.2812,4.2817,4.2836,4.2842,4.2843,4.2912,4.2913,4.2929,4.2939,0,0,0,4.272,4.2725,4.2732,4.2737,4.2757,4.2789,4.2795,4.2813,4.2819,4.2841,4.2843,4.2912,4.2913,4.2928,4.2937,4.2958,0,0,0,4.2713,4.2745,4.2732,4.2769,4.2756,4.28,4.2795,4.2827,4.2848,4.2842,4.2913,4.2913,4.2928,4.2936,4.2957,4.2976,4.2984,0,0,4.2752,4.2749,4.2772,4.2761,4.2807,4.2793,4.2841,4.2861,4.2865,4.2897,4.2899,4.293,4.2937,4.2958,4.3027,4.3033,0,0,0,4.2783,4.2799,4.2812,4.2832,4.285,4.2866,4.288,4.2887,4.2915,4.2881,4.2943,4.2947,4.296,4.2969,4.2974,4.2985,4.2917,4.2917,4.2917,4.2834,4.2839,4.2876,4.2886,4.2906,4.2921,4.2937,4.295,4.2947,4.2961,4.2971,4.3012,4.3023,4.3027,4.3039,4.2981,4.2981,4.2981,4.2981,4.2892,4.2916,4.2913,4.2948,4.2952,4.2981,4.2996,4.2994,4.3021,4.3005,4.3016,4.2999,4.3034,4.3044,4.2982,4.2982,4.2982,4.2982,4.2982,4.2926,4.2939,4.2949,4.298,4.3004,4.3012,4.3039,4.3041,4.3043,4.3054,4.3065,4.3065,4.3065,4.3059,4.3059,4.306,4.306,4.306,4.306,4.2958,4.2969,4.2993,4.3015,4.303,4.3049,4.3064,4.3078,4.3094,4.3093,4.3093,4.3089,4.3036,4.3023,4.3062,4.3062,4.3061,4.3061,4.3061,4.3016,4.3004,4.304,4.3055,4.3082,4.3106,4.3108,4.3137,4.3148,4.3161,4.3155,4.3116,4.3113,4.3109,4.3098,4.3154,4.3154,4.3154,4.3154,4.3046,4.3045,4.3084,4.3107,4.313,4.3137,4.3177,4.319,4.32,4.3208,4.32,4.3186,4.3181,4.3181,4.3176,4.3166,4.3238,4.3238,4.3238,4.3082,4.3084,4.3119,4.3131,4.3153,4.3171,4.3209,4.3236,4.3245,4.3241,4.3214,4.321,4.3188,4.318,4.3175,4.3166,4.3148,0,0]}]]